Regional Weather Roundup
Issued by NWS Northern Indiana

Home | Current Version | Previous Version | Text Only | Print | Product List | Glossary On
Versions: 1 2 3 4 5 6 7 8 9 10 11 12 13 14 15 16 17 18 19 20 21 22 23 24 25 26 27 28 29 30 31 32 33 34 35 36 37 38 39 40 41 42 43 44 45 46 47 48 49 50
000
ASUS43 KIWX 170900
RWRIWX

KIWX WEATHER ROUNDUP
NATIONAL WEATHER SERVICE NORTHERN INDIANA
500 AM EDT TUE OCT 17 2017

NOTE: "FAIR" INDICATES FEW OR NO CLOUDS BELOW 12,000 FEET WITH NO
SIGNIFICANT WEATHER AND/OR OBSTRUCTIONS TO VISIBILITY.

* THESE STATIONS ARE NOT UNDER NWS QUALITY CONTROL. THEY ALSO MAY NOT
  REPORT WEATHER SUCH AS PRECIPITATION OR FOG.

INZ001>027-171000-
NORTHERN INDIANA

CITY           SKY/WX    TMP DP  RH WIND       PRES   REMARKS
MICHIGAN CITY* CLEAR     46  37  71 S6        30.24S
SOUTH BEND     CLEAR     43  39  86 SW9       30.24S
GOSHEN         CLEAR     43  37  79 SW8       30.25R
MONTICELLO*    CLEAR     43  38  80 S6        30.27S
FORT WAYNE     PTCLDY    41  36  82 SW8       30.28R
PERU/GRISSOM   CLEAR     43  38  82 SW7       30.27

$$
INZ028>050-171000-
CENTRAL INDIANA

CITY           SKY/WX    TMP DP  RH WIND       PRES   REMARKS
LAFAYETTE      CLEAR     41  38  89 CALM      30.29R
KOKOMO*        CLEAR     47  38  71 SW8       30.29S
MUNCIE*        CLEAR     46  37  71 S5        30.30R
INDIANAPOLIS   CLEAR     44  38  79 SW6       30.31R

$$
MIZ043>046-050>051-056>058-064>065-071>073-077>080-171000-
SOUTHWEST LOWER MICHIGAN

CITY           SKY/WX    TMP DP  RH WIND       PRES   REMARKS
BATTLE CREEK   CLEAR     43  39  86 SW8       30.22S
BENTON HARBOR  CLEAR     46  38  73 S6        30.21F
COLDWATER*     CLEAR     44  38  79 SW6       30.24R
HILLSDALE*     CLEAR     43  36  75 SW6       30.23S
HOLLAND        CLEAR     47  44  90 S8        30.18F
GRAND RAPIDS   CLEAR     48  41  76 S14       30.17F
STURGIS*       CLEAR     41  37  86 S5        30.24R
THREE RIVERS*  FAIR      42  39  89 SW3       30.24S

$$
OHZ001>008-015>018-024>025-171000-
NORTHWEST OHIO

CITY           SKY/WX    TMP DP  RH WIND       PRES   REMARKS
DEFIANCE       CLEAR     43  36  76 SW5       30.27S
FINDLAY        CLEAR     42  36  79 S8        30.28R
TOLEDO EXPRESS CLEAR     43  40  89 S6        30.26R
TOLEDO METCALF CLEAR     45  39  79 S8        30.28R
LIMA           CLEAR     43  37  79 S8        30.29R

$$
AND FOR LAKE MICHIGAN COASTAL AND OPEN LAKE BUOY OBSERVATIONS

STATION/POSITION TEMP    WIND        PRES    VSBY  WAVE
                 AIR SEA DIR/SP/G                  HT/PER
                 (F)     (DEG/KT/KT) (MB)    (MI)  (FT/S)
CALUMET HARBOR    52     200/  8/ 11 1022.1F
MICHIGAN CITY     52     180/ 12/ 15   N/A
BURNS HARBOR      51     190/ 11/ 16 1023.7S
SAINT JOSEPH      51     180/  7/ 11 1024.0
SOUTH LAKE BUOY   60 62  250/ 17/ 19 1021.6          4/ 5
4 MI NW BRIDGMAN  54 56  210/ 12/ 16 1023.6F         3/ 4
MICHIGAN CITY     54 57  210/ 16/ 17   N/A           2/ 3

$$
&&



USA.gov is the U.S. government's official web portal to all federal, state and local government web resources and services.